Regional Weather Roundup
Issued by NWS Wakefield, VA

Home | Current Version | Previous Version | Graphics & Text | Print | Product List | Glossary On
Versions: 1 2 3 4 5 6 7 8 9 10 11 12 13 14 15 16 17 18 19 20 21 22 23 24 25 26 27 28 29 30 31 32 33 34 35 36 37 38 39 40 41 42 43 44 45 46 47
000
ASUS41 KAKQ 251610
RWRAKQ

REGIONAL WEATHER ROUNDUP
NATIONAL WEATHER SERVICE WAKEFIELD VA
1100 AM EST THU DEC 25 2014

Note: "fair" indicates few or no clouds below 12,000 feet with no
significant weather and/or obstructions to visibility. * = Denotes
station may not report precipitation (e.g., rain,snow,etc.),
thunder or fog.

VAZ042-051-052>054-056-251700-
NORTHERN VIRGINIA

CITY           SKY/WX    TMP DP  RH WIND       PRES   REMARKS
WASH NATIONAL  PTSUNNY   54  30  40 W17G28    29.94R
DULLES         PTSUNNY   49  32  52 W9G17     29.94R
FORT BELVOIR   PTSUNNY   52  31  44 NW20G29   29.95R
QUANTICO       PTSUNNY   55  32  41 NW16      29.96R
FREDERICKSBRG* MOSUNNY   54  32  43 W9        29.95R
STAFFORD*      PTSUNNY   51  29  41 NW16G28   30.00R
WARRENTON      CLOUDY    53  37  53 W13G20    29.95R
CULPEPER*      MOSUNNY   54  28  37 W9        29.96R
MANASSAS*      NOT AVBL
LEESBURG*      PTSUNNY   48  34  57 W12G18    29.94R
WINCHESTER     CLOUDY    50  27  40 W12G22    29.94R
FRONT ROYAL*   PTSUNNY   46  30  53 W10G24    29.94R
LURAY*         MOSUNNY   50  30  46 SW10G35   29.95R
$$

VAZ048-049-060>072-079>083-251700-
CENTRAL AND SOUTH CENTRAL VIRGINIA

CITY           SKY/WX    TMP DP  RH WIND       PRES   REMARKS
RICHMOND       MOSUNNY   55  35  47 W14       29.97R
CHESTERFIELD*  SUNNY     55  28  35 NW17G23   29.99R
PETERSBURG*    PTSUNNY   55  37  50 W15       29.99R
HANOVER        MOSUNNY   54  34  46 NW16      29.98R
TAPPAHANNOCK*  SUNNY     56  32  41 NW10G16   29.96R
QUINTON*       MOSUNNY   55  36  49 W14G22    29.97R
CHARLOTTSVILLE CLOUDY    52  28  39 NW7G21    29.96R
GORDONSVILLE*  CLOUDY    52  29  41 NW12G17   29.96R
ORANGE*        PTSUNNY   54  32  43 SW12G23   29.98R
LOUISA*        MOSUNNY   54  32  43 NW18      29.96R
BUMPASS*       PTSUNNY   52  31  45 NW8       29.97R
FARMVILLE*     MOSUNNY   55  32  40 W14G23    29.95S
CREWE*         MOSUNNY   53  32  45 W10G25    29.99R
FORT PICKETT*  SUNNY     52  35  51 W10G23    29.99R
CHASE CITY*    SUNNY     53  34  48 W14G25    30.01R
CLARKSVILLE*   SUNNY     52  34  50 W12G20    30.02R
SOUTH HILL*    SUNNY     52  33  49 W13G24    30.06R
LAWRENCEVILLE* SUNNY     53  35  50 NW12G23   29.99R
EMPORIA*       PTSUNNY   52  34  50 W15G24    30.01R
$$

VAZ088>098-251700-
SOUTHEAST VIRGINIA

CITY           SKY/WX    TMP DP  RH WIND       PRES   REMARKS
NORFOLK        CLOUDY    54  42  64 W9G16     29.94R
VIRGINIA BEACH CLOUDY    56  44  64 W21       29.94R
NORFOLK NAVAL  CLOUDY    56  43  61 W8        29.97R
WEST POINT*    MOSUNNY   58  34  41 W14G23    29.96R
SALUDA*        FAIR      53  41  62 NW13G21   29.94R
NEWPORT NEWS   CLOUDY    56  41  57 W12       29.95R
LANGLEY AFB    CLOUDY    54  44  70 W8        29.95R
FORT EUSTIS    CLOUDY    52  52 100 W10       29.95R
WILLIAMSBURG*  PTSUNNY   57  45  62 W8G16     29.97R
HR EXEC AP*    CLOUDY    54  41  62 W8G21     29.98R
FRANKLIN*      CLOUDY    54  41  62 W13G18    29.99R
WAKEFIELD      CLOUDY    54  41  61 W12       29.98R
$$

VAZ020-022-025-037-045-251700-
WEST CENTRAL AND SOUTHWEST VIRGINIA

CITY           SKY/WX    TMP DP  RH WIND       PRES   REMARKS
STAUNTON*      PTSUNNY   49  28  44 W14G22    29.99R
WAYNESBORO*    CLOUDY    47  30  51 W8        29.98R
HOT SPRINGS VA CLOUDY    33  27  77 W20G35    29.92R WCI  21
LYNCHBURG      SUNNY     48  30  49 W14G29    30.00R
DANVILLE       SUNNY     52  32  46 W15G22    30.04R
SOUTH BOSTON*  MOSUNNY   52  31  44 NW20G31   30.04R
MARTINSVILLE   MOSUNNY   50  31  47 NW16      30.09R
ROANOKE        PTSUNNY   48  27  44 NW28      30.06R
BLACKSBURG     CLOUDY    39  28  64 W15G22    30.07R
DUBLIN*        CLOUDY    43  32  64 W17G23    30.07R
MARION*        CLOUDY    39  32  75 W16G25    30.10R
HILLSVILLE*    CLOUDY    38  27  66 NW14G26   30.05R
RICHLANDS*     PTSUNNY   38  29  70 W8        30.11R
WISE*          CLOUDY    37  34  87 SW5       30.12S
ABINGDON*      CLOUDY    41  33  71 W10       30.14R
$$

MDZ021>025-VAZ099-100-251700-
SOUTHERN MARYLAND AND THE DELMARVA PENINSULA

CITY           SKY/WX    TMP DP  RH WIND       PRES   REMARKS
PATUXENT RIVER SUNNY     53  38  56 NW10      29.92R
BAY BRIDGE APT   N/A     50  32  50 NW18G29   29.92R
LEONARDTOWN    SUNNY     52  34  50 W13G22    29.94R
DOVER          MOSUNNY   52  30  43 W17G26    29.86R
GEORGETOWN     PTSUNNY   52  33  48 NW10G26   29.90R
EASTON         MOSUNNY   54  36  50 NW13G20   29.95R
CAMBRIDGE      SUNNY     54  34  47 NW14G20   29.91R
SALISBURY      CLOUDY    52  34  50 NW13G22   29.91R
OCEAN CITY     CLOUDY    50  34  54 NW17G30   29.90R
WALLOPS ISLAND CLOUDY    50  38  63 N14G23    29.92R
ACCOMACK*      CLOUDY    50  41  71 NW6       29.93R
$$

NCZ012>017-030>032-251700-
NORTH CENTRAL AND EASTERN NORTH CAROLINA

CITY           SKY/WX    TMP DP  RH WIND       PRES   REMARKS
ROANOKE RAPIDS SUNNY     54  41  62 W8G16     30.01R
RALEIGH        MOSUNNY   54  35  48 W9G17     30.06R
ELIZABETH CITY CLOUDY    57  42  57 W13       29.96R
AHOSKIE*       MOSUNNY   52  38  59 CALM      30.01R
EDENTON*       CLOUDY    55  42  60 NW7       29.99R
CURRITUCK*     CLOUDY    55  42  60 W9        29.96S
KILL DEVIL HLS CLOUDY    55  45  69 W12G18    29.95R
MANTEO         CLOUDY    54  41  62 W12G29    29.97R
CAPE HATTERAS  CLOUDY    57  51  80 W12G24    29.96R
TARBORO*       PTSUNNY   55  41  58 W10       30.03R
GOLDSBORO      PTSUNNY   56  44  63 W12       30.03R
WASHINGTON     CLOUDY    56  45  68 NW6       30.01S
GREENVILLE     PTSUNNY   55  39  54 W8          N/A
NEW BERN       CLOUDY    59  49  69 W13       30.03R
WILMINGTON     CLOUDY    54  45  71 W13       30.07R
$$

VAZ048-251700-
ELSEWHERE

CITY           SKY/WX    TMP DP  RH WIND       PRES   REMARKS
HARRISBURG PA  PTSUNNY   47  31  53 W15G29    29.87R
BALTIMORE      MOSUNNY   51  31  46 W18G28    29.90R
ANNAPOLIS      PTSUNNY   51  29  42 W13G25    29.92R
ANDREWS AFB    MOSUNNY   53  32  45 W16G24    29.92R
PHILADELPHIA   MOSUNNY   52  33  48 W20G35    29.86R
HENDERSON NC   SUNNY     52  32  45 W9G25     30.03R
GREENSBORO     MOSUNNY   51  32  48 NW13G22   30.07R
ROCKY MOUNT    PTSUNNY   56  38  50 W10G18    30.03R
$$

VAZ100-251700-
MARINE

STATION/POSITION TIME  TEMP    WIND        PRES    WAVE   SWELL
                       AIR SEA DIR/SP/G            HT/PER HT/PER
                 (UTC) (F)     (DEG/KT/KT) (MB)    (FT/S) (FT/S)
CAPE MAY NJ      1600   48 48  300/ 11/ 20 1011.2R
LEWES DE         1600   50 45  310/ 19/ 21 1011.9R
15NM E FENWICK I 1600   48 45              1011.2R   6/ 8
OCEAN-CITY-INLET 1600   50 45  330/ 14/ 19 1011.7R
WACHAPREAGUE VA  1600   51 49  340/  3/  7 1013.4R
THOMAS POINT MD  1600   51 42  300/ 18/ 23 1014.1R
GOOSES REEF MD   1600   50     VRB 17/ 21  1012.1R
COVE POINT MD    1600   51     330/ 15/ 18 1013.0R
SOLOMONS ISLAND  1600      44                N/A
BISHOPS HEAD MD  1600   51 46  310/ 11/ 17 1012.9R
PINEY POINT MD   1600          310/ 11/ 12   N/A
POTOMAC MD       1600   47     290/  6/  8 1012.6R
CAMBRIDGE MD     1600   50 41  310/ 16/ 22 1012.8R
LEWISETTA VA     1600   53 44  310/ 10/ 13 1013.3R
RAPPAHANNOCK LGT 1600          340/  8/  9 1014.0R
STINGRAY PT      1600   48     290/  6/ 10 1014.3R
YORK RVR RNG VA  1600   52     310/ 12/ 15 1013.3R
YORKTOWN VA      1600   53 45  290/ 11/ 13 1013.7S
JAMESTOWN VA     1600   50     310/ 12/ 16   N/A
DOMINION TERM VA 1600   51     290/ 14/ 17 1013.9R
KIPTOPEKE VA     1600      51  330/  8/  9   N/A
CHES BAY BRIDGE  1600   51 46  260/ 14/ 15 1013.4R
CAPE HENRY VA    1600   54     270/ 13/ 19 1012.6R
CHESAPEAKE LGHT  1500   53     280/ 25/ 26 1012.9R
WILLOUBY STN VA  1600   52     280/ 14/ 15 1014.5R
S CRANEY ISL VA  1600          280/  9/ 14 1013.9R
CAPE HENRY BUOY  1600      48                N/A     4/ 7
1ST LANDING BUOY 1600   50     280/ 12/ 14 1013.4R
CAPE CHARLES BUO 1600      47                N/A     3/ 7   2/ 7
64NM E OF VA BCH 1600   56 53  300/ 21/ 27 1011.9R   6/ 8   5/ 8
DUCK PIER NC     1600   55 50  290/ 18/ 25 1013.3R
44100 DUCK FRF   1600      50                N/A     4/ 8
44056 DUCK FRF   1600      50                N/A     3/ 9
OREGON INLET NC  1600   55 54  280/ 14/ 20 1014.6R
HATTERAS NC      1600   58 57  270/ 19/ 24 1015.6R
DIAMOND SHLS NC  1600   63                 1014.9R   8/ 8
CAPE LOOKOUT NC  1500   58     270/ 20/ 24 1015.9R
$$



USA.gov is the U.S. government's official web portal to all federal, state and local government web resources and services.